Watonga, OK

2:38 PM CST on December 04, 2016 (GMT -0600)
Watonga

Weather History for KJWG - August, 2013

Change the Weather History Date:

Friday, August 23, 2013

  Actual Average Record
Temperature  
Mean Temperature 82 °F -  
Max Temperature 95 °F 91 °F 104 °F (2010)
Min Temperature 70 °F 67 °F 52 °F (1961)
Cooling Degree Days 17    
Growing Degree Days 32 (Base 50)    
Moisture  
Dew Point 69 °F    
Average Humidity 66    
Maximum Humidity 95    
Minimum Humidity 37    
Precipitation  
Precipitation 0.00 in - - ()
Sea Level Pressure  
Sea Level Pressure 30.03 in    
Wind  
Wind Speed 0 mph (North)    
Max Wind Speed 0 mph    
Max Gust Speed -    
Averages and records for this station are not official NWS values.
T = Trace of Precipitation, MM = Missing Value Source: NWS Daily Summary

Daily Weather History Graph

Daily Weather History Graph

Search for Another Location

Airport or City:

Trip Planner

Search our weather history database for the weather conditions in past years. The results will help you decide how hot, cold, wet, or windy it might be!

Date:

Astronomy

Aug. 23, 2013 Rise Set
Actual Time 6:58 AM CDT 8:12 PM CDT
Civil Twilight 6:32 AM CDT 8:39 PM CDT
Nautical Twilight 6:00 AM CDT 9:11 PM CDT
Astronomical Twilight 5:27 AM CDT 9:44 PM CDT
Moon 9:41 PM CDT (8/23) 9:47 AM CDT (8/23)
Length of Visible Light 14h 07m
Length of Day
13h 14m
Waning Gibbous, 91% of the Moon is Illuminated
Aug 23
Waning Gibbous
Aug 28
Last Quarter
Sep 5
New
Sep 12
First Quarter
Sep 19
Full

Hourly Weather History & Observations

Time (CDT) Temp. Heat Index Dew Point Humidity Pressure Visibility Wind Dir Wind Speed Gust Speed Precip Events Conditions
12:15 AM 78.6 °F - 70.9 °F 77% 30.05 in - Calm Calm - N/A   Clear
12:35 AM 78.3 °F - 70.7 °F 77% 30.04 in - Calm Calm - N/A   Clear
12:55 AM 77.7 °F - 70.7 °F 79% 30.04 in - Calm Calm - N/A   Clear
1:15 AM 77.9 °F - 70.3 °F 77% 30.04 in - Calm Calm - N/A   Clear
1:35 AM 77.4 °F - 70.2 °F 78% 30.04 in - Calm Calm - N/A   Clear
1:55 AM 76.6 °F - 70.2 °F 80% 30.04 in - Calm Calm - N/A   Clear
2:15 AM 77.0 °F - 70.0 °F 79% 30.04 in - Calm Calm - N/A   Clear
2:35 AM 76.5 °F - 69.8 °F 80% 30.04 in - Calm Calm - N/A   Clear
2:55 AM 76.1 °F - 69.8 °F 81% 30.04 in - Calm Calm - N/A   Clear
3:15 AM 75.4 °F - 69.8 °F 83% 30.04 in - Calm Calm - N/A   Clear
3:35 AM 74.5 °F - 69.4 °F 84% 30.04 in - Calm Calm - N/A   Unknown
3:55 AM 73.8 °F - 69.3 °F 86% 30.04 in - Calm Calm - N/A   Clear
4:15 AM 73.2 °F - 69.4 °F 88% 30.04 in - Calm Calm - N/A   Unknown
4:35 AM 72.7 °F - 69.3 °F 89% 30.04 in - Calm Calm - N/A   Unknown
4:55 AM 70.3 °F - 68.7 °F 95% 30.03 in - Calm Calm - N/A   Unknown
5:15 AM 72.5 °F - 69.8 °F 91% 30.03 in - Calm Calm - N/A   Unknown
5:35 AM 72.5 °F - 69.3 °F 90% 30.03 in - Calm Calm - N/A   Unknown
5:55 AM 72.3 °F - 69.3 °F 90% 30.02 in - Calm Calm - N/A   Unknown
6:15 AM 71.8 °F - 69.4 °F 92% 30.03 in - Calm Calm - N/A   Unknown
6:35 AM 71.6 °F - 69.1 °F 92% 30.03 in - Calm Calm - N/A   Unknown
6:55 AM 72.0 °F - 69.1 °F 91% 30.03 in - Calm Calm - N/A   Unknown
7:15 AM 72.5 °F - 69.1 °F 89% 30.04 in - Calm Calm - N/A   Unknown
7:35 AM 73.0 °F - 69.3 °F 88% 30.04 in - Calm Calm - N/A   Unknown
7:55 AM 73.8 °F - 69.6 °F 87% 30.05 in - Calm Calm - N/A   Unknown
8:15 AM 74.7 °F - 69.8 °F 85% 30.06 in - Calm Calm - N/A   Clear
8:35 AM 76.5 °F - 70.3 °F 81% 30.06 in - Calm Calm - N/A   Clear
8:55 AM 78.1 °F - 70.9 °F 78% 30.06 in - Calm Calm - N/A   Clear
9:15 AM 80.1 °F 83.4 °F 70.9 °F 73% 30.06 in - Calm Calm - N/A   Scattered Clouds
9:35 AM 82.0 °F 86.3 °F 70.9 °F 69% 30.06 in - Calm Calm - N/A   Scattered Clouds
9:55 AM 83.3 °F 87.9 °F 70.9 °F 66% 30.06 in - Calm Calm - N/A   Clear
10:15 AM 84.6 °F 90.0 °F 71.6 °F 65% 30.06 in - Calm Calm - N/A   Clear
10:35 AM 86.0 °F 91.5 °F 71.2 °F 61% 30.07 in - Calm Calm - N/A   Clear
10:55 AM 86.4 °F 92.6 °F 72.1 °F 62% 30.07 in - Calm Calm - N/A   Clear
11:15 AM 87.6 °F 93.5 °F 71.4 °F 58% 30.06 in - Calm Calm - N/A   Clear
11:35 AM 88.2 °F 93.7 °F 70.7 °F 56% 30.06 in - Calm Calm - N/A   Clear
11:55 AM 89.6 °F 96.6 °F 72.1 °F 56% 30.06 in - Calm Calm - N/A   Clear
12:15 PM 90.5 °F 96.0 °F 70.2 °F 51% 30.06 in - Calm Calm - N/A   Clear
12:35 PM 91.0 °F 96.6 °F 70.0 °F 50% 30.06 in - Calm Calm - N/A   Clear
12:55 PM 91.8 °F 97.5 °F 70.3 °F 49% 30.05 in - Calm Calm - N/A   Clear
1:15 PM 91.2 °F 95.0 °F 67.8 °F 46% 30.04 in - Calm Calm - N/A   Clear
1:35 PM 90.7 °F 94.5 °F 67.8 °F 47% 30.04 in - Calm Calm - N/A   Scattered Clouds
1:55 PM 92.5 °F 97.4 °F 68.7 °F 46% 30.03 in - Calm Calm - N/A   Overcast
2:15 PM 94.1 °F 95.9 °F 64.4 °F 37% 30.03 in - Calm Calm - N/A   Mostly Cloudy
2:35 PM 92.5 °F 93.7 °F 63.5 °F 38% 30.02 in - Calm Calm - N/A   Scattered Clouds
2:55 PM 94.5 °F 96.5 °F 64.4 °F 37% 30.02 in - Calm Calm - N/A   Clear
3:15 PM 94.6 °F 97.8 °F 65.8 °F 39% 30.01 in - Calm Calm - N/A   Clear
3:35 PM 94.8 °F 98.1 °F 66.2 °F 39% 30.01 in - Calm Calm - N/A   Clear
3:55 PM 94.6 °F 98.3 °F 66.6 °F 40% 30.00 in - Calm Calm - N/A   Clear
4:15 PM 94.6 °F 97.8 °F 66.2 °F 39% 29.99 in - Calm Calm - N/A   Scattered Clouds
4:35 PM 94.5 °F 98.5 °F 67.5 °F 41% 29.99 in - Calm Calm - N/A   Scattered Clouds
4:55 PM 94.1 °F 97.3 °F 66.4 °F 40% 29.99 in - Calm Calm - N/A   Clear
5:15 PM 94.3 °F 97.7 °F 66.4 °F 40% 29.98 in - Calm Calm - N/A   Clear
5:35 PM 94.1 °F 97.3 °F 66.7 °F 40% 29.98 in - Calm Calm - N/A   Clear
5:55 PM 94.1 °F 97.9 °F 67.1 °F 41% 29.98 in - Calm Calm - N/A   Clear
6:15 PM 93.4 °F 96.6 °F 66.2 °F 41% 29.98 in - Calm Calm - N/A   Clear
6:35 PM 93.2 °F 96.7 °F 66.7 °F 42% 29.97 in - Calm Calm - N/A   Clear
6:55 PM 92.3 °F 96.1 °F 67.3 °F 44% 29.97 in - Calm Calm - N/A   Clear
7:15 PM 88.5 °F 93.5 °F 70.0 °F 54% 29.97 in - Calm Calm - N/A   Clear
7:35 PM 87.4 °F 92.7 °F 70.3 °F 57% 29.98 in - Calm Calm - N/A   Clear
7:55 PM 86.4 °F 91.4 °F 70.5 °F 59% 29.98 in - Calm Calm - N/A   Clear
8:15 PM 85.1 °F 89.8 °F 70.5 °F 61% 29.98 in - Calm Calm - N/A   Clear
8:35 PM 84.0 °F 88.7 °F 70.7 °F 64% 29.99 in - Calm Calm - N/A   Clear
8:55 PM 83.3 °F 87.4 °F 70.2 °F 64% 29.99 in - Calm Calm - N/A   Clear
9:15 PM 82.4 °F 86.3 °F 70.0 °F 66% 30.00 in - Calm Calm - N/A   Clear
9:35 PM 81.0 °F 84.4 °F 70.0 °F 69% 30.01 in - Calm Calm - N/A   Clear
9:55 PM 80.4 °F 83.6 °F 69.8 °F 70% 30.03 in - Calm Calm - N/A   Clear
10:15 PM 79.7 °F - 70.2 °F 73% 30.04 in - Calm Calm - N/A   Clear
10:35 PM 79.7 °F - 70.9 °F 74% 30.04 in - Calm Calm - N/A   Clear
10:55 PM 79.2 °F - 71.8 °F 78% 30.04 in - Calm Calm - N/A   Clear
11:15 PM 78.8 °F - 72.1 °F 80% 30.04 in - Calm Calm - N/A   Clear
11:35 PM 78.3 °F - 72.1 °F 81% 30.04 in - Calm Calm - N/A   Clear
11:55 PM 77.5 °F - 71.8 °F 82% 30.04 in - Calm Calm - N/A   Clear